Location: Alsip
(41.6689°N, 87.7387°W)
Time: 08:40:57
(UTC+00:00)

GEOS 3 Rocket - Pass Details

Date: 24 October 2020
Orbit: 770 x 850 km, 115.0° (Epoch: 03 December)

Event Time Altitude Azimuth Distance (km) Brightness Sun altitude
Exits shadow 00:04:10 14° 114° (ESE) 2,139 5.3 -13.2°
Maximum altitude 00:08:25 46° 46° (NE) 1,116 4.0 -14.0°
Drops below altitude 10° 00:13:31 10° 335° (NNW) 2,472 6.4 -15.0°
Sets 00:15:56 0° 329° (NNW) 3,415 7.3 -15.4°
